SCP
0 0 0 0 0 -0 -0 -0 -0 -0 0 0 0 0 0 0 0 0 0 0 0 0 0 0 0 0 0 0 0 0 0 0 0 0 0 0 0 0 0 0 0 0 0
0 0 0 0 0 0 0 -0 -0 -0 0 0 0 0 0 0 0 0 0 0 0 0 0 0 0 0 0 0 0 0 0 0 0 0 0 0 0 0 0 0 0 0 0
0 0 0 0 0 0 0 0 0 0 0 0 0 0 0 0 0 0 0 0 0 0 0 0 0 0 0 0 0 0 0 0 0 0 0 0 0 0 0 0 0 0 0
0 0 0 0 1 1 1 1 0 0 0 0 0 0 0 0 0 0 0 0 0 0 0 0 0 0 0 0 0 0 0 0 0 0 0 0 0 0 0 0 0 0 0
0 0 0 0 1 1 1 1 1 1 1 1 0 0 0 0 0 0 0 0 0 0 0 0 0 0 0 0 0 0 0 0 0 0 0 0 0 0 0 0 0 0 0
0 0 0 0 0 0 1 1 1 1 1 1 1 1 1 1 0 0 0 0 0 0 0 0 0 0 0 0 0 0 0 0 0 0 0 0 0 0 0 0 0 0 0
0 0 0 0 0 0 0 0 0 1 1 1 1 1 1 1 1 1 1 1 1 1 1 1 1 1 1 1 1 1 1 1 0 0 0 0 0 0 0 0 0 0 0
0 0 0 0 0 0 0 0 0 0 0 0 1 1 1 1 2 1 1 1 1 1 1 1 1 1 1 1 1 1 1 1 1 0 1 1 1 1 0 0 0 0 0
0 0 0 0 0 0 0 0 0 0 0 0 0 0 0 1 1 1 1 1 1 1 1 1 1 1 1 1 1 1 1 1 1 1 1 1 1 1 1 0 0 0 0
0 0 0 0 0 0 0 0 0 0 0 0 0 0 0 0 1 1 1 1 2 2 1 1 1 1 1 1 1 1 1 1 1 1 1 1 1 1 1 1 0 0 0
0 0 0 0 0 0 0 0 0 0 0 0 0 0 0 0 0 0 0 1 1 1 1 1 1 1 1 1 1 1 1 1 1 1 1 1 1 1 1 1 1 0 0
0 0 0 0 0 0 0 0 0 0 0 0 0 0 0 0 0 0 0 0 0 1 1 1 1 1 1 1 1 1 1 1 1 1 1 1 1 1 1 1 1 1 0
0 0 0 0 0 0 0 0 0 0 0 0 0 0 0 0 0 0 0 0 0 0 0 1 1 1 1 1 1 1 1 1 0 0 0 1 1 1 1 1 1 1 1
0 0 0 0 0 0 0 0 0 0 0 0 0 0 0 0 0 0 0 0 0 0 0 0 0 1 1 1 1 1 1 0 0 0 0 0 0 0 0 1 1 1 1
0 0 0 0 0 0 0 0 0 0 0 0 0 0 0 0 0 0 0 0 0 0 0 0 0 0 0 0 0 0 0 0 0 0 0 0 0 0 0 0 1 1 1
0 0 0 0 0 0 0 0 0 0 0 0 0 0 0 0 0 0 0 0 0 0 0 0 0 0 0 0 0 0 0 0 0 0 0 0 0 0 0 0 1 1 1
0 0 0 0 0 0 0 0 0 0 0 0 0 0 0 0 0 0 0 0 -0 -0 0 0 0 0 0 0 0 0 0 0 0 0 0 0 0 0 0 0 0 1 1
0 0 0 0 0 0 0 0 0 0 0 0 0 0 0 0 0 0 0 0 0 0 -0 0 0 0 0 0 0 0 0 0 0 0 0 0 0 0 0 0 0 1 1
0 0 0 0 0 0 0 0 0 0 0 0 0 0 0 0 0 0 0 0 0 0 0 0 0 0 0 0 0 0 0 0 0 0 0 0 0 0 0 1 0 1 1
0 0 0 0 0 0 0 0 0 0 0 0 0 0 0 0 0 0 -0 0 0 0 0 0 0 0 0 0 0 0 0 0 0 0 0 0 0 0 0 1 1 1 1
0 0 0 0 0 0 0 0 0 0 0 0 0 0 0 0 0 0 0 0 0 0 0 0 0 0 0 0 0 0 0 0 0 0 0 0 0 0 0 1 1 1 1
0 0 0 0 0 0 0 0 0 0 0 0 0 0 0 0 0 0 0 0 0 0 0 0 0 0 0 0 0 0 0 0 0 0 0 0 0 0 0 0 1 1 1
0 0 0 0 0 0 0 0 0 0 0 0 0 0 0 0 0 0 0 0 0 0 0 0 0 0 0 0 0 0 0 0 0 0 0 0 0 0 0 0 0 1 1
0 0 0 0 0 0 0 0 0 0 0 0 0 0 0 0 0 0 0 0 0 0 0 0 0 0 0 0 0 0 0 0 0 0 0 0 0 0 0 0 0 1 1
0 0 0 0 0 0 0 0 0 0 0 0 0 0 0 0 0 0 0 0 0 0 0 0 0 0 0 0 0 0 0 0 0 0 0 0 0 0 0 0 0 1 1
0 0 0 0 0 0 0 0 0 0 0 0 0 0 0 0 0 0 0 0 0 0 0 0 0 0 0 0 0 0 0 0 0 0 0 0 0 0 0 0 0 1 1
Wind_Speed
14 11 11 11 11 10 11 11 12 13 12 9 8 9 9 9 9 8 6 4 3 2 2 3 4 3 3 2 2 2 2 3 2 2 3 5 6 7 7 7 6 5 6
16 12 12 13 12 12 12 11 11 12 12 11 10 10 10 10 9 9 8 8 6 5 5 6 6 6 5 5 5 4 3 3 3 2 2 6 7 7 7 6 4 4 6
19 18 19 19 15 13 12 12 11 11 11 11 11 11 11 11 10 10 9 9 8 8 8 8 9 8 7 7 6 5 5 5 5 4 4 6 7 7 6 7 4 4 6
19 19 22 27 24 19 16 14 13 12 12 11 11 11 11 11 11 11 11 10 10 10 9 10 10 10 8 7 7 7 7 7 7 6 7 5 5 7 7 7 6 6 6
17 18 23 28 30 29 26 22 19 17 16 13 12 12 12 12 12 12 12 11 11 11 10 9 9 10 9 8 8 9 9 8 7 9 7 6 5 7 8 8 7 6 6
19 19 24 30 30 30 30 29 28 26 23 20 17 15 15 14 13 13 13 12 11 11 11 9 8 8 8 8 8 9 10 8 9 10 7 7 7 8 10 10 9 8 7
21 21 24 30 30 30 30 29 29 28 28 27 25 22 19 16 15 14 13 12 11 11 11 9 7 6 5 6 7 8 8 7 10 8 7 8 7 7 10 11 11 10 9
22 22 22 28 28 29 30 30 29 28 27 27 27 26 25 21 18 16 13 13 11 11 10 8 7 7 6 5 5 5 5 6 10 9 9 8 6 7 12 13 13 12 11
22 22 21 22 22 24 26 28 28 28 28 27 27 27 24 23 22 19 16 15 14 12 9 9 9 8 8 6 4 3 3 3 9 7 9 7 5 8 10 13 14 14 13
22 22 22 21 21 19 18 23 24 25 27 26 26 26 24 21 21 20 18 18 17 14 12 10 10 10 9 8 6 4 3 5 9 8 6 5 3 8 9 11 15 15 14
23 22 21 22 21 20 17 18 19 19 22 22 21 25 20 15 15 15 18 20 19 17 14 13 12 11 10 9 9 6 6 7 7 6 6 2 3 8 9 10 12 16 16
23 22 20 21 21 20 16 15 13 13 14 15 15 18 14 14 13 15 16 18 19 18 15 12 12 11 11 8 9 9 7 8 7 6 5 6 6 9 10 11 11 14 17
20 21 21 20 20 19 14 13 10 9 10 12 16 17 14 12 12 12 10 11 12 13 11 12 10 8 9 7 6 7 8 7 5 6 5 8 9 10 11 12 13 13 16
19 21 21 20 18 18 16 12 12 10 10 11 13 16 13 10 11 12 10 12 11 8 10 9 8 10 10 11 11 10 10 7 7 5 4 7 10 12 13 13 14 14 16
20 21 21 21 20 18 15 12 12 12 12 13 11 13 15 12 12 12 10 10 12 11 11 11 10 11 11 10 10 11 11 11 10 9 5 8 11 12 13 15 15 15 16
20 20 20 20 20 19 15 14 13 12 12 12 12 14 16 13 13 12 12 11 11 12 12 12 13 11 10 9 10 11 12 12 11 11 9 8 12 13 14 15 16 17 17
19 19 19 19 20 19 17 16 13 12 13 12 12 14 16 16 15 14 12 11 11 12 14 12 14 11 10 10 11 12 11 12 12 12 11 9 8 12 15 16 16 17 18
18 19 19 16 19 19 17 16 13 13 13 11 11 12 16 16 16 14 12 11 12 12 11 11 11 11 11 10 10 9 9 10 13 13 11 10 9 8 11 15 17 17 18
19 19 20 20 20 19 18 15 14 13 13 12 11 11 14 15 16 14 11 11 14 11 10 11 11 11 12 12 11 11 10 10 11 12 13 12 11 10 10 10 15 16 17
18 19 20 19 19 18 14 13 12 13 12 11 11 13 16 14 16 14 11 14 14 11 11 11 13 12 12 12 13 13 12 12 11 11 12 12 11 12 12 11 10 12 17
18 19 20 20 19 16 14 14 14 14 13 12 12 16 17 16 16 14 11 13 13 12 14 14 13 14 12 11 12 12 13 15 14 12 11 11 12 12 11 12 10 9 9
17 18 18 19 18 17 14 14 13 14 12 12 12 14 16 18 17 13 14 12 13 13 15 14 14 11 11 9 8 10 10 12 13 12 12 12 12 11 11 12 12 11 10
16 17 16 18 18 17 17 13 13 12 11 11 14 12 15 18 18 16 15 14 14 13 12 15 14 14 11 11 9 8 8 9 8 10 12 12 13 12 11 11 13 13 13
16 15 17 17 17 17 17 15 17 14 14 16 14 13 17 17 17 17 16 16 15 13 14 14 14 12 13 11 10 10 11 11 10 9 8 9 11 12 12 10 12 13 13
16 15 15 17 17 17 17 17 16 15 14 13 15 17 16 15 16 17 17 16 15 13 15 16 15 14 11 11 11 10 12 11 13 11 12 10 8 9 9 11 10 11 12
14 14 15 17 17 17 18 18 18 18 18 18 18 17 15 13 14 17 17 16 16 14 15 16 15 16 13 13 12 11 11 10 9 10 12 13 12 9 9 8 9 9 9
Wind_Direction
348 360 4 358 360 2 353 354 360 360 359 360 3 358 351 349 348 343 339 331 327 331 322 305 285 279 278 270 242 202 154 134 131 166 188 177 167 162 156 155 180 147 126
349 1 9 359 354 354 350 351 352 350 347 351 354 350 342 339 339 338 332 322 310 304 299 293 287 277 268 259 247 227 199 163 144 136 195 193 178 176 175 179 239 113 146
0 7 9 4 353 348 346 344 342 340 334 333 336 335 331 329 327 326 327 326 319 311 301 290 284 279 269 263 257 243 225 197 177 171 223 208 176 181 188 188 202 163 167
9 15 16 18 15 5 353 344 339 333 326 320 320 319 317 315 314 315 314 315 316 315 307 291 281 276 267 258 251 244 234 215 192 193 223 206 188 166 186 192 202 197 188
20 21 20 24 25 24 20 11 359 347 335 325 317 312 309 306 303 305 304 303 307 306 304 295 282 273 266 256 245 242 239 224 197 217 230 217 210 174 194 198 204 203 202
28 27 27 27 28 27 25 23 21 15 6 352 335 323 316 310 306 305 305 299 299 298 294 291 286 278 267 254 244 239 238 228 213 226 222 220 217 189 205 203 205 202 207
28 27 28 28 28 28 26 25 23 21 19 15 8 356 341 325 317 314 312 305 297 296 286 280 282 283 277 261 246 237 233 225 241 235 225 224 223 202 220 211 204 203 207
28 25 25 25 25 25 25 24 24 22 20 18 15 9 2 352 340 328 319 318 304 295 287 274 273 277 277 269 257 242 221 228 235 234 227 228 210 220 235 222 207 204 205
28 26 22 20 19 19 22 20 19 19 18 17 16 11 5 1 356 348 336 328 320 304 290 280 273 270 270 266 253 220 192 216 252 239 231 231 193 236 250 226 213 205 204
27 24 19 16 15 12 14 17 15 16 14 12 13 9 5 1 359 353 352 347 334 321 305 291 281 278 275 268 255 216 182 225 243 242 238 225 192 253 261 236 221 213 206
24 20 16 13 10 6 6 8 10 12 12 8 8 4 1 359 358 351 353 348 345 337 320 300 285 281 279 257 243 233 222 238 234 241 239 192 237 263 261 252 235 225 214
18 14 13 11 7 3 360 359 1 4 6 7 6 3 358 354 350 349 342 348 346 341 327 309 293 272 260 252 220 211 239 239 244 238 226 172 236 260 262 256 249 233 224
14 13 10 9 6 3 357 355 354 353 356 358 2 1 356 354 349 348 342 344 342 341 339 328 308 283 270 266 266 248 249 255 250 249 229 185 228 249 255 253 252 241 227
13 11 8 6 5 2 358 353 351 350 350 350 355 357 355 351 348 346 339 338 337 338 333 327 314 300 284 271 260 258 253 246 248 249 239 191 231 245 249 251 249 246 233
11 7 5 2 2 358 355 352 351 349 348 343 347 351 353 347 344 341 335 336 334 335 330 324 315 308 297 283 271 263 260 257 255 249 235 204 230 244 246 247 246 245 239
6 3 1 360 359 355 354 351 347 346 344 341 344 346 349 345 341 336 331 331 332 333 328 319 313 307 295 287 278 269 262 258 255 254 252 225 218 237 245 243 243 242 239
2 359 359 356 355 354 353 350 345 342 340 339 341 342 348 345 341 335 329 327 333 329 323 320 316 310 299 290 280 276 271 264 259 254 250 249 238 224 231 239 239 241 239
2 0 358 357 353 353 352 347 344 342 340 338 339 342 347 344 344 335 329 330 333 326 322 321 318 316 307 294 282 275 271 267 264 258 252 243 243 242 227 224 231 235 238
3 359 357 356 354 351 349 346 344 342 340 338 340 343 342 341 341 336 329 332 332 327 325 323 322 317 309 300 286 273 264 262 262 259 252 245 239 236 242 219 215 229 235
0 358 355 353 352 350 349 345 343 341 340 337 339 340 338 336 337 334 330 332 332 327 328 326 321 318 308 299 291 277 265 258 256 257 256 247 237 233 234 239 226 220 224
358 358 355 352 350 350 351 347 342 340 338 336 338 336 334 334 333 331 330 330 330 327 324 322 325 319 315 313 299 281 262 251 248 248 248 248 239 232 230 232 235 235 218
357 357 354 352 348 349 350 342 337 331 331 334 335 333 333 332 330 329 329 328 327 323 320 322 322 315 310 314 311 299 273 254 239 237 240 240 241 235 231 231 232 232 234
357 356 352 351 348 348 347 341 337 333 332 336 336 333 332 329 326 325 325 325 323 321 317 316 313 309 307 304 288 288 285 270 267 239 233 236 235 233 231 232 233 233 232
354 352 350 349 348 348 347 344 342 338 337 335 332 328 328 327 325 322 323 324 321 318 313 310 307 301 296 292 292 272 276 294 286 269 239 229 237 239 234 231 233 232 231
351 350 349 348 348 349 348 346 341 338 335 330 330 328 329 327 325 324 324 323 320 316 310 305 301 293 285 280 278 280 284 280 269 267 263 252 233 233 234 230 228 231 229
351 350 349 348 349 349 347 346 343 339 336 333 334 332 330 326 325 326 325 322 317 313 310 306 299 291 282 274 270 267 266 266 267 260 255 254 253 241 227 225 224 226 227